Location: Mohawk View
(42.7837°N, 73.7885°W)
Time: 00:54:17
(UTC+00:00)

Cosmos 2237 Rocket - Pass Details

Date: 17 June 2021
Orbit: 835 x 850 km, 71.0° (Epoch: 02 August)

Event Time Altitude Azimuth Distance (km) Brightness Sun altitude
Exits shadow 04:28:47 51° 210° (SSW) 1,040 2.3 -23.5°
Maximum altitude 04:30:16 85° 293° (WNW) 844 2.1 -23.6°
Drops below altitude 10° 04:35:54 10° 24° (NNE) 2,454 5.4 -23.7°
Sets 04:38:21 0° 25° (NNE) 3,392 6.3 -23.7°
